Hourly Weather Rudnjeve

Today, 21 April, Wednesday

Time Temperature Precipitation Wind Pressure Humidity
00:00 +4°C° 0 mm 3 mps 741 mmHg 91%
01:00 +4°C° 0 mm 3 mps 741 mmHg 92%
02:00 +4°C° 0 mm 3 mps 741 mmHg 92%
03:00 +5°C° 0 mm 2 mps 742 mmHg 92%
04:00 +5°C° 0 mm 2 mps 742 mmHg 92%
05:00 +5°C° 0 mm 2 mps 742 mmHg 93%
06:00 +6°C° 0.1 mm 1 mps 742 mmHg 91%
07:00 +6°C° 0.1 mm 1 mps 743 mmHg 89%
08:00 +6°C° 0.1 mm 1 mps 743 mmHg 88%
09:00 +6°C° 0.3 mm 1 mps 744 mmHg 90%
10:00 +5°C° 0.3 mm 2 mps 744 mmHg 91%
11:00 +5°C° 0.3 mm 2 mps 744 mmHg 93%
12:00 +5°C° 0.5 mm 2 mps 745 mmHg 94%
13:00 +3°C° 0.5 mm 3 mps 745 mmHg 94%
14:00 +3°C° 0.5 mm 3 mps 746 mmHg 95%
15:00 +3°C° 0.3 mm 3 mps 746 mmHg 94%
16:00 +4°C° 0.3 mm 2 mps 746 mmHg 94%
17:00 +5°C° 0.3 mm 2 mps 747 mmHg 93%
18:00 +4°C° 0 mm 2 mps 747 mmHg 93%
19:00 +4°C° 0 mm 2 mps 747 mmHg 93%
20:00 +4°C° 0 mm 2 mps 748 mmHg 93%
21:00 +4°C° 0 mm 2 mps 748 mmHg 93%
22:00 +4°C° 0 mm 2 mps 748 mmHg 94%
23:00 +3°C° 0 mm 3 mps 748 mmHg 94%

Tomorrow, 22 April, Thursday

Time Temperature Precipitation Wind Pressure Humidity
00:00 +3°C° 0 mm 3 mps 748 mmHg 93%
01:00 +3°C° 0 mm 3 mps 748 mmHg 91%
02:00 +4°C° 0 mm 3 mps 748 mmHg 90%
03:00 +4°C° 0 mm 3 mps 748 mmHg 90%
04:00 +4°C° 0 mm 3 mps 748 mmHg 90%
05:00 +4°C° 0 mm 3 mps 748 mmHg 90%
06:00 +5°C° 0 mm 4 mps 749 mmHg 85%
07:00 +7°C° 0 mm 5 mps 749 mmHg 81%
08:00 +8°C° 0 mm 5 mps 749 mmHg 77%
09:00 +10°C° 0.1 mm 5 mps 749 mmHg 72%
10:00 +12°C° 0.1 mm 5 mps 750 mmHg 68%
11:00 +14°C° 0.1 mm 5 mps 750 mmHg 64%
12:00 +14°C° 0.4 mm 6 mps 749 mmHg 61%
13:00 +15°C° 0.4 mm 6 mps 749 mmHg 58%
14:00 +15°C° 0.4 mm 7 mps 749 mmHg 55%
15:00 +15°C° 0.2 mm 6 mps 749 mmHg 57%
16:00 +14°C° 0.2 mm 6 mps 749 mmHg 59%
17:00 +14°C° 0.2 mm 5 mps 749 mmHg 61%
18:00 +13°C° 0.1 mm 5 mps 749 mmHg 66%
19:00 +10°C° 0.1 mm 5 mps 749 mmHg 71%
20:00 +9°C° 0.1 mm 5 mps 749 mmHg 76%
21:00 +9°C° 0 mm 5 mps 749 mmHg 75%
22:00 +9°C° 0 mm 5 mps 749 mmHg 74%
23:00 +9°C° 0 mm 5 mps 749 mmHg 74%

Day after tomorrow, 23 April, Friday

Time Temperature Precipitation Wind Pressure Humidity
00:00 +8°C° 0 mm 5 mps 749 mmHg 75%
01:00 +8°C° 0 mm 5 mps 749 mmHg 77%
02:00 +8°C° 0 mm 5 mps 749 mmHg 78%
03:00 +8°C° 0 mm 4 mps 749 mmHg 81%
04:00 +7°C° 0 mm 4 mps 749 mmHg 83%
05:00 +7°C° 0 mm 4 mps 749 mmHg 86%
06:00 +8°C° 0 mm 5 mps 748 mmHg 81%
07:00 +9°C° 0 mm 5 mps 748 mmHg 76%
08:00 +11°C° 0 mm 6 mps 748 mmHg 71%
09:00 +13°C° 0.1 mm 6 mps 748 mmHg 68%
10:00 +14°C° 0.1 mm 7 mps 748 mmHg 65%
11:00 +15°C° 0.1 mm 7 mps 748 mmHg 63%
12:00 +15°C° 0.9 mm 7 mps 747 mmHg 64%
13:00 +15°C° 0.9 mm 7 mps 747 mmHg 64%
14:00 +14°C° 0.9 mm 7 mps 746 mmHg 65%
15:00 +11°C° 1.2 mm 6 mps 746 mmHg 74%
16:00 +9°C° 1.2 mm 5 mps 746 mmHg 82%
17:00 +6°C° 1.2 mm 5 mps 747 mmHg 90%
18:00 +5°C° 0.5 mm 5 mps 747 mmHg 91%
19:00 +5°C° 0.5 mm 5 mps 747 mmHg 91%
20:00 +3°C° 0.5 mm 5 mps 747 mmHg 92%
21:00 +3°C° 0.7 mm 5 mps 747 mmHg 93%
22:00 +3°C° 0.7 mm 4 mps 747 mmHg 94%
23:00 +3°C° 0.7 mm 4 mps 747 mmHg 95%

24 April, Saturday

Time Temperature Precipitation Wind Pressure Humidity
00:00 +3°C° 0.5 mm 4 mps 747 mmHg 94%
01:00 +3°C° 0.5 mm 3 mps 747 mmHg 93%
02:00 +3°C° 0.5 mm 3 mps 747 mmHg 91%
03:00 +3°C° 0 mm 3 mps 747 mmHg 92%
04:00 +2°C° 0 mm 3 mps 747 mmHg 92%
05:00 +1°C° 0 mm 3 mps 747 mmHg 93%
06:00 +3°C° 0 mm 4 mps 747 mmHg 84%
07:00 +3°C° 0 mm 5 mps 747 mmHg 76%
08:00 +5°C° 0 mm 5 mps 747 mmHg 67%
09:00 +5°C° 0 mm 6 mps 747 mmHg 62%
10:00 +5°C° 0 mm 6 mps 747 mmHg 57%
11:00 +7°C° 0 mm 6 mps 748 mmHg 52%
12:00 +6°C° 0.2 mm 7 mps 747 mmHg 53%
13:00 +6°C° 0.2 mm 7 mps 747 mmHg 54%
14:00 +6°C° 0.2 mm 7 mps 747 mmHg 55%
15:00 +6°C° 0.1 mm 7 mps 747 mmHg 56%
16:00 +7°C° 0.1 mm 6 mps 747 mmHg 57%
17:00 +7°C° 0.1 mm 6 mps 747 mmHg 59%
18:00 +5°C° 0 mm 5 mps 747 mmHg 64%
19:00 +4°C° 0 mm 4 mps 748 mmHg 70%
20:00 +2°C° 0 mm 3 mps 748 mmHg 76%
21:00 +2°C° 0 mm 3 mps 748 mmHg 77%
22:00 +1°C° 0 mm 3 mps 748 mmHg 79%
23:00 +1°C° 0 mm 3 mps 748 mmHg 81%

25 April, Sunday

Time Temperature Precipitation Wind Pressure Humidity
00:00 +1°C° 0 mm 3 mps 748 mmHg 82%
01:00 +1°C° 0 mm 3 mps 748 mmHg 83%
02:00 +1°C° 0 mm 3 mps 748 mmHg 83%
03:00 0°C° 0 mm 3 mps 748 mmHg 85%
04:00 0°C° 0 mm 3 mps 748 mmHg 87%
05:00 0°C° 0 mm 3 mps 748 mmHg 89%
06:00 0°C° 0 mm 4 mps 748 mmHg 82%
07:00 +3°C° 0 mm 4 mps 748 mmHg 75%
08:00 +3°C° 0 mm 5 mps 748 mmHg 68%
09:00 +4°C° 0.4 mm 6 mps 748 mmHg 65%
10:00 +4°C° 0.4 mm 7 mps 748 mmHg 62%
11:00 +5°C° 0.4 mm 8 mps 748 mmHg 60%
12:00 +5°C° 0.3 mm 7 mps 748 mmHg 57%
13:00 +5°C° 0.3 mm 7 mps 748 mmHg 54%
14:00 +6°C° 0.3 mm 7 mps 748 mmHg 51%
15:00 +7°C° 0.1 mm 6 mps 748 mmHg 52%
16:00 +7°C° 0.1 mm 6 mps 747 mmHg 53%
17:00 +7°C° 0.1 mm 5 mps 747 mmHg 54%
18:00 +5°C° 0 mm 4 mps 748 mmHg 60%
19:00 +4°C° 0 mm 3 mps 748 mmHg 67%
20:00 +3°C° 0 mm 2 mps 748 mmHg 73%
21:00 +3°C° 0 mm 2 mps 748 mmHg 75%
22:00 +2°C° 0 mm 2 mps 748 mmHg 77%
23:00 +2°C° 0 mm 2 mps 748 mmHg 78%

26 April, Monday

Time Temperature Precipitation Wind Pressure Humidity
00:00 +1°C° 0 mm 2 mps 748 mmHg 80%
01:00 +1°C° 0 mm 2 mps 748 mmHg 81%
02:00 +1°C° 0 mm 2 mps 748 mmHg 83%
03:00 -1°C° 0 mm 2 mps 748 mmHg 83%
04:00 -1°C° 0 mm 2 mps 747 mmHg 84%
05:00 -1°C° 0 mm 2 mps 747 mmHg 85%
06:00 +1°C° 0 mm 3 mps 747 mmHg 78%
07:00 +2°C° 0 mm 3 mps 747 mmHg 71%
08:00 +4°C° 0 mm 4 mps 747 mmHg 65%
09:00 +5°C° 0.1 mm 4 mps 747 mmHg 60%
10:00 +6°C° 0.1 mm 5 mps 747 mmHg 56%
11:00 +6°C° 0.1 mm 5 mps 747 mmHg 52%
12:00 +6°C° 0.2 mm 5 mps 747 mmHg 52%
13:00 +7°C° 0.2 mm 6 mps 747 mmHg 53%
14:00 +7°C° 0.2 mm 6 mps 747 mmHg 53%
15:00 +5°C° 0.1 mm 6 mps 747 mmHg 56%
16:00 +6°C° 0.1 mm 5 mps 747 mmHg 58%
17:00 +5°C° 0.1 mm 5 mps 747 mmHg 61%
18:00 +4°C° 0 mm 4 mps 747 mmHg 67%
19:00 +3°C° 0 mm 3 mps 747 mmHg 72%
20:00 +2°C° 0 mm 2 mps 747 mmHg 77%
21:00 +2°C° 0 mm 2 mps 747 mmHg 79%
22:00 +2°C° 0 mm 2 mps 747 mmHg 80%
23:00 +1°C° 0 mm 2 mps 747 mmHg 82%
Show more